Probability
35 31 26 23 20 17 14 13 9 4 1 0 1 1 2 3 3 3 4 4 4 3 3 3 2 1 0 0 0 0 0 0 0 0 0 0 0 0 0 0 0 0 0
37 34 30 26 22 17 14 12 10 6 3 2 2 2 3 3 4 4 4 4 3 3 3 3 3 2 1 0 0 0 0 0 0 0 0 0 0 0 0 0 0 0 0
43 40 35 30 24 18 14 11 10 8 6 4 3 3 3 3 4 4 4 3 3 3 3 3 3 3 1 1 0 0 0 0 0 0 0 0 0 0 0 0 0 0 0
45 41 36 30 25 21 16 11 9 8 7 5 3 3 2 3 4 4 3 3 3 3 3 3 3 3 3 2 1 0 0 0 0 0 0 0 0 0 0 0 0 0 0
41 38 34 30 26 23 18 11 8 7 6 5 3 3 3 3 3 3 3 3 3 3 3 3 3 3 3 2 1 0 0 0 0 0 0 0 0 0 0 0 0 0 0
37 34 30 27 26 23 17 11 8 6 4 4 4 4 4 4 3 3 3 3 3 3 3 3 3 3 2 1 0 0 0 0 0 0 0 0 0 0 0 0 0 0 0
31 27 23 22 21 19 14 10 8 6 4 4 5 6 6 5 4 3 2 3 3 3 3 3 3 2 2 2 1 0 0 0 0 0 0 0 0 0 0 0 0 0 0
21 18 17 16 15 13 12 10 8 7 7 6 6 6 6 6 4 2 2 2 3 3 3 3 3 3 3 3 2 1 0 0 0 0 0 0 0 0 0 0 0 0 0
13 12 12 13 12 11 10 9 9 9 8 7 6 6 6 6 4 2 1 2 3 3 3 3 3 3 3 3 3 2 2 2 1 0 0 0 0 0 0 0 0 0 0
12 12 13 13 12 10 9 9 9 9 8 7 6 6 6 5 3 2 1 2 3 3 3 3 3 3 3 2 3 3 3 2 1 0 0 0 0 0 0 0 0 0 0
14 14 14 14 13 10 9 9 8 8 7 7 6 6 5 4 3 2 1 2 2 2 2 2 2 2 1 1 1 2 2 1 1 0 0 0 0 0 0 0 0 0 0
13 13 13 13 11 10 9 8 7 6 6 6 6 6 4 3 2 2 1 1 1 1 1 1 1 1 0 0 0 1 1 0 0 0 0 0 0 0 0 0 0 0 0
11 10 10 10 9 7 6 5 4 4 4 5 6 4 2 1 1 1 0 0 0 0 0 0 0 0 0 0 0 0 0 0 0 0 0 0 0 0 0 0 0 0 0
8 8 7 7 6 5 4 3 3 3 3 4 4 3 1 0 0 0 0 0 0 0 0 0 0 0 0 0 0 0 0 0 0 0 0 0 0 0 0 0 0 0 0
6 6 6 6 5 4 3 3 3 3 3 3 3 2 1 0 0 0 0 0 0 0 0 0 0 0 0 0 0 0 0 0 0 0 0 0 0 0 0 0 0 0 0
6 6 6 5 4 3 3 3 3 3 3 2 2 2 1 0 0 0 0 0 0 0 0 0 0 0 0 0 0 0 0 0 0 0 0 0 0 0 0 0 0 0 0
6 6 5 3 3 3 3 3 3 3 2 1 1 1 0 0 0 0 0 0 0 0 0 0 0 0 0 0 0 0 0 0 0 0 0 0 0 0 0 0 0 0 0
4 4 3 2 2 3 3 3 3 3 2 0 0 0 0 0 0 0 0 0 0 0 0 0 0 0 0 0 0 0 0 0 0 0 0 0 0 0 0 0 0 0 0
3 3 1 0 1 1 3 3 3 2 1 0 0 0 0 0 0 0 0 0 0 0 0 0 0 0 0 0 0 0 0 0 0 0 0 0 0 0 0 0 0 0 0
3 2 1 0 0 1 2 3 3 1 0 0 0 0 0 0 0 0 0 0 0 0 0 0 0 0 0 0 0 0 0 0 0 0 0 0 0 0 0 0 0 0 0
3 2 1 0 0 0 1 2 2 1 0 0 0 0 0 0 0 0 0 0 0 0 0 0 0 0 0 0 0 0 0 0 0 0 0 0 0 0 0 0 0 0 0
3 2 1 0 0 0 0 1 1 0 0 0 0 0 0 0 0 0 0 0 0 0 0 0 0 0 0 0 0 0 0 0 0 0 0 0 0 0 0 0 0 0 0
3 2 1 0 0 0 0 0 0 0 0 0 0 0 0 0 0 0 0 0 0 0 0 0 0 0 0 0 0 0 0 0 0 0 0 0 0 0 0 0 0 0 0
2 2 1 0 0 0 0 0 0 0 0 0 0 0 0 0 0 0 0 0 0 0 0 0 0 0 0 0 0 0 0 0 0 0 0 0 0 0 0 0 0 0 0
1 1 1 0 0 0 0 0 0 0 0 0 0 0 0 0 0 0 0 0 0 0 0 0 0 0 0 0 0 0 0 0 0 0 0 0 0 0 0 0 0 0 0
0 0 0 0 0 0 0 0 0 0 0 0 0 0 0 0 0 0 0 0 0 0 0 0 0 0 0 0 0 0 0 0 0 0 0 0 0 0 0 0 0 0 0
Wind_Speed
8 6 5 4 4 4 3 4 4 3 3 3 3 3 3 3 2 2 2 1 1 1 1 1 1 1 1 1 1 1 1 2 2 2 1 2 2 2 2 1 1 1 1
7 6 5 4 4 4 3 3 3 2 2 2 3 3 3 2 2 2 2 1 1 1 0 0 1 0 1 0 0 0 0 1 2 1 1 2 2 1 1 1 2 2 2
5 5 5 4 3 3 3 2 2 2 2 2 2 3 2 2 2 2 2 1 1 1 1 1 0 1 1 1 1 1 1 1 1 1 0 1 1 1 2 2 3 2 3
6 6 5 4 4 3 3 3 3 3 3 3 3 3 3 2 2 1 2 2 2 2 2 2 2 2 1 1 2 2 2 3 2 2 1 1 1 1 2 2 2 2 3
6 6 5 4 4 4 3 3 4 4 4 4 4 3 3 3 2 2 2 2 3 3 3 3 4 5 5 3 3 2 3 3 2 2 2 1 1 1 1 1 1 1 2
6 5 5 5 5 5 4 4 5 5 4 4 4 4 4 3 4 5 4 3 4 4 4 4 5 7 9 10 9 7 5 4 3 2 1 1 1 1 1 1 1 2 2
6 5 5 6 6 6 6 6 6 4 5 5 5 5 4 4 6 6 7 5 5 4 4 4 4 5 6 6 8 10 9 9 7 4 3 1 0 1 1 2 2 2 1
6 6 6 6 7 6 6 6 5 4 5 5 5 4 4 5 6 7 8 6 6 5 5 5 5 4 5 5 6 7 6 5 5 4 3 1 1 1 1 2 2 2 2
7 6 6 6 7 7 7 6 5 6 6 5 4 4 4 4 6 7 7 5 5 6 5 6 5 5 7 7 7 6 6 5 7 9 8 7 8 7 4 3 3 3 2
6 6 6 6 7 7 7 6 5 6 6 5 5 5 5 4 6 7 6 4 5 5 5 5 8 7 8 7 6 5 5 3 4 5 6 7 6 7 8 4 2 2 2
6 7 7 7 7 7 6 6 6 6 6 6 6 5 5 5 6 7 7 5 5 5 4 4 4 8 9 9 7 5 4 3 3 4 4 4 4 5 5 4 3 3 2
7 8 7 7 6 6 7 6 6 6 6 5 5 5 5 5 6 7 9 8 6 6 4 3 4 9 9 9 7 7 8 6 4 4 4 3 3 3 3 3 4 3 2
8 8 7 7 6 5 6 6 5 4 4 4 4 4 4 4 5 9 10 10 9 6 4 6 7 9 8 7 9 9 6 4 4 4 3 2 1 1 2 3 4 4 4
8 7 7 7 7 6 5 4 4 4 4 4 4 4 3 3 3 3 4 5 7 7 5 6 9 9 7 6 6 5 4 3 3 2 1 1 2 2 3 2 2 3 3
8 7 7 7 7 6 6 5 4 3 3 4 3 4 4 3 1 3 4 4 4 4 4 4 4 4 4 4 4 4 3 4 3 2 2 2 2 3 2 2 2 2 2
8 7 5 5 5 5 6 6 11 8 8 7 6 5 4 5 6 7 8 9 9 8 6 4 3 3 3 3 3 3 3 3 2 2 2 2 2 2 2 2 2 2 2
8 7 5 5 5 5 5 6 5 7 10 10 8 8 7 7 8 8 9 10 8 8 6 4 3 2 2 2 2 2 2 2 2 2 2 2 2 2 1 2 2 2 1
7 7 7 5 5 5 4 4 5 5 4 3 5 6 7 8 8 8 9 8 5 4 3 3 2 2 2 2 2 2 2 2 2 2 2 2 2 2 1 1 1 1 1
6 5 5 5 5 5 5 4 4 5 4 3 2 3 5 6 7 7 6 4 4 3 2 2 2 2 2 2 2 2 2 2 2 2 2 2 2 2 2 1 1 2 2
5 8 7 6 6 5 5 5 4 4 4 3 3 2 2 4 4 3 3 3 3 3 2 2 2 2 2 2 2 2 2 2 2 2 2 2 2 1 1 1 1 1 1
5 6 9 6 5 5 5 5 5 5 5 4 3 3 5 4 4 3 2 2 3 3 3 2 2 2 2 2 2 2 2 2 1 1 2 2 2 2 2 1 1 1 1
5 5 5 5 5 5 5 5 5 5 5 5 3 3 5 4 3 2 2 2 2 2 3 3 3 2 2 2 2 2 2 2 1 1 1 1 1 2 2 2 2 1 2
5 5 5 5 5 6 6 5 4 5 5 4 4 4 3 3 3 3 2 2 2 2 2 3 3 2 2 2 2 2 2 1 1 0 1 1 2 2 1 1 2 2 2
5 6 6 5 5 5 5 5 5 5 5 5 4 4 4 3 3 3 3 3 2 2 2 3 3 4 5 3 2 2 1 1 1 1 2 1 1 1 1 1 2 2 2
5 5 5 5 5 5 5 5 5 5 5 5 5 4 4 3 3 3 3 3 4 3 3 3 3 3 5 5 3 2 2 2 2 1 1 1 1 1 1 2 2 2 2
5 5 5 4 4 5 5 5 5 6 5 5 5 5 4 4 4 3 3 3 3 3 3 2 3 4 5 4 4 3 2 2 1 1 1 1 1 1 2 1 2 2 3
Wind_Direction
186 188 191 190 185 180 187 202 197 188 184 184 193 195 192 192 184 170 185 183 177 223 239 202 232 209 194 231 228 209 193 170 212 277 325 338 6 38 27 28 30 19 34
181 176 181 179 175 180 192 198 185 173 172 174 170 164 166 163 157 162 173 179 176 184 234 144 237 133 85 42 48 97 165 157 171 208 334 2 21 28 32 34 34 51 50
165 164 165 160 160 167 175 168 145 134 127 120 124 124 128 132 131 145 150 148 137 135 124 104 74 93 88 74 85 81 84 84 106 131 356 9 14 23 33 37 47 39 50
150 156 157 155 155 155 146 126 117 113 106 98 99 110 122 124 121 128 132 132 107 91 85 87 82 87 111 118 95 93 98 90 85 90 71 32 18 1 46 47 34 24 39
142 148 147 133 124 119 115 112 104 101 100 97 95 93 100 107 105 115 122 126 110 89 67 60 67 73 72 77 85 91 102 100 94 93 81 57 33 33 24 359 47 28 34
134 135 124 116 114 106 102 99 94 94 90 85 83 84 79 82 85 94 103 97 93 92 82 68 67 65 67 68 69 70 81 100 106 98 84 75 4 345 4 58 85 58 23
115 115 113 116 113 110 111 103 99 97 92 85 80 81 78 70 75 89 98 95 90 89 89 84 77 67 63 72 67 62 59 65 83 110 100 83 283 297 88 76 75 72 70
108 105 106 111 115 111 106 103 104 102 93 88 82 80 81 72 82 92 93 87 86 84 81 84 88 73 67 76 78 66 56 50 58 74 94 67 48 39 99 121 119 84 47
111 110 110 112 111 109 108 107 105 99 90 85 83 79 81 72 79 89 96 91 85 76 72 75 84 81 70 78 83 77 62 45 51 57 57 52 51 54 68 73 58 68 41
112 110 108 108 109 111 110 106 100 98 94 89 77 70 73 72 78 85 96 97 91 82 70 62 67 77 73 73 83 86 77 51 42 39 38 34 37 41 49 64 85 88 78
106 102 101 102 105 107 106 102 102 99 93 85 77 64 57 61 75 82 88 93 100 93 81 66 58 70 72 70 76 81 89 82 60 59 51 38 34 35 31 33 50 94 97
105 102 100 99 103 106 106 102 101 104 99 91 83 69 49 48 62 75 82 84 93 97 94 81 74 74 72 70 70 70 72 69 63 60 55 43 36 27 18 27 37 48 72
104 101 98 91 87 95 106 109 105 102 103 98 94 87 67 53 59 72 79 82 85 90 90 88 81 75 70 64 62 64 66 64 63 64 59 37 0 3 23 25 22 30 29
106 100 97 94 85 77 77 87 100 104 110 111 108 105 93 72 61 59 70 79 79 79 79 76 72 66 62 57 51 46 48 64 84 84 64 23 18 30 30 30 34 24 31
110 104 97 94 96 84 70 59 79 79 124 133 135 136 126 113 107 112 110 100 101 103 96 73 60 56 52 45 41 37 37 43 50 45 52 42 31 31 19 19 42 44 43
120 116 113 111 106 104 101 79 54 64 76 92 107 118 102 116 121 106 100 101 101 104 91 81 71 69 69 60 55 39 33 36 39 50 54 52 47 41 24 15 31 50 45
133 132 128 125 123 121 118 115 99 60 60 68 81 96 106 113 108 102 100 97 92 92 85 82 77 75 68 63 61 59 39 20 40 57 59 49 44 39 38 25 23 30 22
133 136 136 135 133 131 128 124 124 123 107 64 52 82 102 104 102 102 103 92 74 68 87 96 93 86 81 70 60 55 46 35 36 41 38 33 37 39 30 14 19 35 21
137 140 140 139 136 134 131 125 120 118 119 117 94 68 83 92 90 95 99 98 111 103 95 97 103 100 89 79 73 73 73 62 50 48 36 28 27 45 34 10 16 31 50
137 141 141 142 140 139 139 136 134 133 132 133 134 136 114 94 92 86 82 98 106 109 109 111 105 101 98 92 88 87 76 59 51 47 31 25 21 44 47 29 35 37 19
136 139 136 137 143 146 147 148 148 146 146 146 150 154 143 127 129 127 120 119 126 128 126 125 123 111 102 101 93 86 84 64 47 37 28 24 29 31 21 28 37 39 32
137 141 143 145 145 145 145 145 145 145 148 145 136 129 133 119 123 127 132 136 140 141 143 138 132 128 132 130 120 105 96 80 52 40 31 23 27 27 20 22 22 16 11
137 138 137 136 137 139 139 143 147 146 145 146 144 138 137 137 138 139 141 142 137 134 131 128 127 120 113 112 114 121 124 137 190 150 71 41 29 21 19 13 358 355 344
136 140 141 140 139 142 144 148 149 149 149 150 147 146 151 153 151 151 153 148 138 130 126 129 137 142 138 128 114 111 125 148 148 137 114 99 56 22 16 7 344 332 329
137 139 141 143 145 146 145 147 147 148 150 154 155 156 159 155 153 156 158 151 143 137 140 139 141 142 143 140 136 133 127 111 96 97 94 90 64 25 13 356 338 326 320
135 135 137 137 139 144 146 149 151 151 155 159 160 162 162 159 159 159 156 153 152 152 148 146 154 153 151 151 150 147 137 113 82 61 74 84 61 11 357 338 332 331 324